Regional Weather Roundup
Issued by NWS

Home | Current Version | Previous Version | Text Only | Print | Product List | Glossary Off
Versions: 1 2 3 4 5 6 7 8 9 10 11 12 13 14 15 16 17 18 19 20 21 22 23 24 25 26 27 28 29 30 31 32 33 34 35 36 37 38 39 40 41 42 43 44 45 46 47 48 49 50

000
ASUS43 KFSD 251802
RWRSD

WEATHER ROUNDUP FOR SOUTH DAKOTA
NATIONAL WEATHER SERVICE SIOUX FALLS SD
1200 PM CST SUN JAN 25 2015

NOTE: "FAIR" INDICATES FEW OR NO CLOUDS BELOW 12,000 FEET WITH NO
SIGNIFICANT WEATHER AND/OR OBSTRUCTIONS TO VISIBILITY.


SDZ001>005-009-010-012>017-251900-
NORTHWEST AND NORTH CENTRAL SOUTH DAKOTA

CITY           SKY/WX    TMP DP  RH WIND       PRES   REMARKS
BUFFALO          N/A     43  24  47 W10       29.92F
FAITH            N/A     40  27  59 NW9       30.02R
MOBRIDGE       CLOUDY    39  34  82 NW6       29.98F
$$

SDZ012>016-024>037-041>051-057-063-072>074-251900-
SOUTHWEST AND SOUTH CENTRAL SOUTH DAKOTA

CITY           SKY/WX    TMP DP  RH WIND       PRES   REMARKS
RAPID CTY ARPT SUNNY     45  18  34 S3        30.04S
PIERRE         CLOUDY    40  31  70 NW14      30.04S
CUSTER         CLOUDY    41  19  41 W10       30.02S
PHILIP         SUNNY     42  27  55 NW12      30.05F
PINE RIDGE     SUNNY     42  29  59 W7        30.07F
WINNER         CLOUDY    39  32  76 NW16      30.05S
$$

SDZ004>011-016>023-039-040-251900-
NORTHEAST SOUTH DAKOTA

CITY           SKY/WX    TMP DP  RH WIND       PRES   REMARKS
ABERDEEN       CLOUDY    29  23  78 NW5       30.05F WCI  24
WATERTOWN      CLOUDY    29  24  82 N7        30.00R WCI  22
SISSETON         N/A     24  19  81 N9        30.03F WCI  14
$$

SDZ017-020-022-023-036>040-048>070-251900-
SOUTHEAST SOUTH DAKOTA

CITY           SKY/WX    TMP DP  RH WIND       PRES   REMARKS
SIOUX FALLS    CLOUDY    34  31  88 N8        30.01R WCI  27
HURON          CLOUDY    31  28  89 NW8       30.05R WCI  23
MITCHELL       CLOUDY    34  31  88 NW10      30.06R WCI  26
YANKTON        CLOUDY    34  30  86 NW9       30.05R WCI  26
$$

ABBREVIATIONS USED IN REMARKS
   TC - TEMPERATURE IN CELSIUS
  WCI - WIND CHILL INDEX
   HX - HEAT INDEX
  VSB - VISIBILITY




USA.gov is the U.S. government's official web portal to all federal, state and local government web resources and services.